Time,TemperatureF,DewpointF,PressureIn,WindDirection,WindDirectionDegrees,WindSpeedMPH,WindSpeedGustMPH,Humidity,HourlyPrecipIn,Conditions,Clouds,dailyrainin,SoftwareType,DateUTC
2013-03-22 00:02:00,22.5,18.4,30.09,North,5,2.0,2.0,84,0.00,,,0.00,Wunderground v.1.15,2013-03-22 05:02:00,
2013-03-22 00:08:00,22.5,18.7,30.09,North,5,1.0,3.0,85,0.00,,,0.00,Wunderground v.1.15,2013-03-22 05:08:00,
2013-03-22 00:13:00,22.4,18.6,30.09,North,5,1.0,1.0,85,0.00,,,0.00,Wunderground v.1.15,2013-03-22 05:13:00,
2013-03-22 00:19:00,22.4,18.6,30.09,North,5,0.0,1.0,85,0.00,,,0.00,Wunderground v.1.15,2013-03-22 05:19:00,
2013-03-22 00:24:00,22.3,18.5,30.09,North,5,0.0,4.0,85,0.00,,,0.00,Wunderground v.1.15,2013-03-22 05:24:00,
2013-03-22 00:30:00,22.1,18.3,30.09,North,5,2.0,4.0,85,0.00,,,0.00,Wunderground v.1.15,2013-03-22 05:30:00,
2013-03-22 00:35:00,22.0,18.2,30.09,North,5,2.0,2.0,85,0.00,,,0.00,Wunderground v.1.15,2013-03-22 05:35:00,
2013-03-22 00:40:00,21.9,18.1,30.09,North,5,2.0,3.0,85,0.00,,,0.00,Wunderground v.1.15,2013-03-22 05:40:00,
2013-03-22 00:52:00,21.7,17.9,30.09,North,5,0.0,1.0,85,0.00,,,0.00,Wunderground v.1.15,2013-03-22 05:52:00,
2013-03-22 00:57:00,21.7,17.9,30.09,North,5,1.0,3.0,85,0.00,,,0.00,Wunderground v.1.15,2013-03-22 05:57:00,
2013-03-22 01:03:00,21.7,17.9,30.09,North,5,1.0,1.0,85,0.00,,,0.00,Wunderground v.1.15,2013-03-22 06:03:00,
2013-03-22 01:08:00,21.7,17.9,30.09,North,5,0.0,6.0,85,0.00,,,0.00,Wunderground v.1.15,2013-03-22 06:08:00,
2013-03-22 01:22:00,21.5,17.7,30.09,North,5,0.0,3.0,85,0.00,,,0.00,Wunderground v.1.15,2013-03-22 06:22:00,
2013-03-22 01:27:00,21.3,17.5,30.09,North,5,2.0,3.0,85,0.00,,,0.00,Wunderground v.1.15,2013-03-22 06:27:00,
2013-03-22 01:32:00,21.2,17.4,30.10,North,5,2.0,2.0,85,0.00,,,0.00,Wunderground v.1.15,2013-03-22 06:32:00,
2013-03-22 01:38:00,21.1,17.3,30.10,North,5,4.0,8.0,85,0.00,,,0.00,Wunderground v.1.15,2013-03-22 06:38:00,
2013-03-22 01:43:00,21.1,17.3,30.10,North,5,4.0,9.0,85,0.00,,,0.00,Wunderground v.1.15,2013-03-22 06:43:00,
2013-03-22 01:49:00,21.0,17.2,30.10,North,5,2.0,9.0,85,0.00,,,0.00,Wunderground v.1.15,2013-03-22 06:49:00,
2013-03-22 02:00:00,20.7,16.9,30.10,North,5,0.0,1.0,85,0.00,,,0.00,Wunderground v.1.15,2013-03-22 07:00:00,
2013-03-22 02:05:00,20.7,16.9,30.10,North,5,0.0,4.0,85,0.00,,,0.00,Wunderground v.1.15,2013-03-22 07:05:00,
2013-03-22 02:10:00,20.7,16.9,30.10,North,5,1.0,3.0,85,0.00,,,0.00,Wunderground v.1.15,2013-03-22 07:10:00,
2013-03-22 02:20:00,20.6,16.8,30.10,North,5,3.0,13.0,85,0.00,,,0.00,Wunderground v.1.15,2013-03-22 07:20:00,
2013-03-22 02:25:00,20.6,16.8,30.10,North,5,3.0,12.0,85,0.00,,,0.00,Wunderground v.1.15,2013-03-22 07:25:00,
2013-03-22 02:30:00,20.5,16.7,30.10,North,5,8.0,12.0,85,0.00,,,0.00,Wunderground v.1.15,2013-03-22 07:30:00,
2013-03-22 02:36:00,20.4,16.6,30.11,North,5,4.0,8.0,85,0.00,,,0.00,Wunderground v.1.15,2013-03-22 07:36:00,
2013-03-22 02:42:00,20.3,16.5,30.11,North,5,1.0,4.0,85,0.00,,,0.00,Wunderground v.1.15,2013-03-22 07:42:00,
2013-03-22 02:47:00,20.2,16.4,30.10,North,5,3.0,5.0,85,0.00,,,0.00,Wunderground v.1.15,2013-03-22 07:47:00,
2013-03-22 02:52:00,20.0,16.2,30.11,North,5,1.0,2.0,85,0.00,,,0.00,Wunderground v.1.15,2013-03-22 07:52:00,
2013-03-22 02:57:00,19.9,16.1,30.11,North,5,0.0,3.0,85,0.00,,,0.00,Wunderground v.1.15,2013-03-22 07:57:00,
2013-03-22 03:02:00,19.8,16.0,30.11,North,5,0.0,0.0,85,0.00,,,0.00,Wunderground v.1.15,2013-03-22 08:02:00,
2013-03-22 03:07:00,19.7,15.9,30.11,North,5,0.0,0.0,85,0.00,,,0.00,Wunderground v.1.15,2013-03-22 08:07:00,
2013-03-22 03:12:00,19.5,15.7,30.10,North,5,0.0,0.0,85,0.00,,,0.00,Wunderground v.1.15,2013-03-22 08:12:00,
2013-03-22 03:17:00,19.4,15.9,30.10,North,5,0.0,0.0,86,0.00,,,0.00,Wunderground v.1.15,2013-03-22 08:17:00,
2013-03-22 03:22:00,19.2,15.7,30.10,North,5,0.0,0.0,86,0.00,,,0.00,Wunderground v.1.15,2013-03-22 08:22:00,
2013-03-22 03:28:00,19.1,15.6,30.10,North,5,0.0,1.0,86,0.00,,,0.00,Wunderground v.1.15,2013-03-22 08:28:00,
2013-03-22 03:32:00,19.1,15.9,30.10,North,5,0.0,0.0,87,0.00,,,0.00,Wunderground v.1.15,2013-03-22 08:32:00,
2013-03-22 03:38:00,19.0,15.5,30.10,North,5,0.0,0.0,86,0.00,,,0.00,Wunderground v.1.15,2013-03-22 08:38:00,
2013-03-22 03:43:00,18.9,15.7,30.10,North,5,0.0,0.0,87,0.00,,,0.00,Wunderground v.1.15,2013-03-22 08:43:00,
2013-03-22 03:48:00,18.8,15.6,30.10,North,5,0.0,1.0,87,0.00,,,0.00,Wunderground v.1.15,2013-03-22 08:48:00,
2013-03-22 03:53:00,18.8,15.6,30.09,North,5,0.0,0.0,87,0.00,,,0.00,Wunderground v.1.15,2013-03-22 08:53:00,
2013-03-22 03:58:00,18.7,15.5,30.09,North,5,0.0,0.0,87,0.00,,,0.00,Wunderground v.1.15,2013-03-22 08:58:00,
2013-03-22 04:03:00,18.7,15.5,30.09,North,5,1.0,2.0,87,0.00,,,0.00,Wunderground v.1.15,2013-03-22 09:03:00,
2013-03-22 04:08:00,18.7,15.7,30.09,North,5,0.0,4.0,88,0.00,,,0.00,Wunderground v.1.15,2013-03-22 09:08:00,
2013-03-22 04:13:00,18.7,15.7,30.09,North,5,2.0,2.0,88,0.00,,,0.00,Wunderground v.1.15,2013-03-22 09:13:00,
2013-03-22 04:18:00,18.8,15.8,30.09,North,5,1.0,3.0,88,0.00,,,0.00,Wunderground v.1.15,2013-03-22 09:18:00,
2013-03-22 04:23:00,18.7,15.7,30.09,North,5,0.0,1.0,88,0.00,,,0.00,Wunderground v.1.15,2013-03-22 09:23:00,
2013-03-22 04:28:00,18.6,15.4,30.09,North,5,0.0,2.0,87,0.00,,,0.00,Wunderground v.1.15,2013-03-22 09:28:00,
2013-03-22 04:33:00,18.5,15.3,30.09,North,5,0.0,1.0,87,0.00,,,0.00,Wunderground v.1.15,2013-03-22 09:33:00,
2013-03-22 04:38:00,18.5,15.3,30.09,North,5,0.0,1.0,87,0.00,,,0.00,Wunderground v.1.15,2013-03-22 09:38:00,
2013-03-22 04:43:00,18.3,15.1,30.09,North,5,0.0,0.0,87,0.00,,,0.00,Wunderground v.1.15,2013-03-22 09:43:00,
2013-03-22 04:48:00,18.2,15.2,30.09,North,5,0.0,1.0,88,0.00,,,0.00,Wunderground v.1.15,2013-03-22 09:48:00,
2013-03-22 04:53:00,18.0,15.0,30.09,North,5,0.0,0.0,88,0.00,,,0.00,Wunderground v.1.15,2013-03-22 09:53:00,
2013-03-22 04:58:00,17.9,14.9,30.09,North,5,0.0,0.0,88,0.00,,,0.00,Wunderground v.1.15,2013-03-22 09:58:00,
2013-03-22 05:03:00,17.8,14.8,30.09,North,5,0.0,0.0,88,0.00,,,0.00,Wunderground v.1.15,2013-03-22 10:03:00,
2013-03-22 05:08:00,17.7,14.8,30.09,North,5,0.0,0.0,88,0.00,,,0.00,Wunderground v.1.15,2013-03-22 10:08:00,
2013-03-22 05:13:00,17.6,14.7,30.08,North,5,0.0,0.0,88,0.00,,,0.00,Wunderground v.1.15,2013-03-22 10:13:00,
2013-03-22 05:18:00,17.6,14.7,30.08,North,5,0.0,0.0,88,0.00,,,0.00,Wunderground v.1.15,2013-03-22 10:18:00,
2013-03-22 05:23:00,17.5,14.6,30.08,North,5,0.0,0.0,88,0.00,,,0.00,Wunderground v.1.15,2013-03-22 10:23:00,
2013-03-22 05:28:00,17.4,14.7,30.08,North,5,0.0,1.0,89,0.00,,,0.00,Wunderground v.1.15,2013-03-22 10:28:00,
2013-03-22 05:33:00,17.5,14.8,30.08,North,5,2.0,2.0,89,0.00,,,0.00,Wunderground v.1.15,2013-03-22 10:33:00,
2013-03-22 05:38:00,17.5,14.8,30.08,North,5,1.0,2.0,89,0.00,,,0.00,Wunderground v.1.15,2013-03-22 10:38:00,
2013-03-22 05:43:00,17.5,14.8,30.08,North,5,0.0,0.0,89,0.00,,,0.00,Wunderground v.1.15,2013-03-22 10:43:00,
2013-03-22 05:48:00,17.5,14.8,30.08,North,5,1.0,2.0,89,0.00,,,0.00,Wunderground v.1.15,2013-03-22 10:48:00,
2013-03-22 05:53:00,17.4,14.7,30.09,North,5,0.0,0.0,89,0.00,,,0.00,Wunderground v.1.15,2013-03-22 10:53:00,
2013-03-22 05:58:00,17.4,14.7,30.09,North,5,0.0,0.0,89,0.00,,,0.00,Wunderground v.1.15,2013-03-22 10:58:00,
2013-03-22 06:03:00,17.6,14.9,30.09,North,5,2.0,2.0,89,0.00,,,0.00,Wunderground v.1.15,2013-03-22 11:03:00,
2013-03-22 06:08:00,17.7,15.0,30.09,North,5,1.0,2.0,89,0.00,,,0.00,Wunderground v.1.15,2013-03-22 11:08:00,
2013-03-22 06:13:00,17.7,15.0,30.09,North,5,1.0,2.0,89,0.00,,,0.00,Wunderground v.1.15,2013-03-22 11:13:00,
2013-03-22 06:18:00,17.7,15.0,30.10,North,5,0.0,2.0,89,0.00,,,0.00,Wunderground v.1.15,2013-03-22 11:18:00,
2013-03-22 06:24:00,17.8,15.1,30.10,North,5,0.0,0.0,89,0.00,,,0.00,Wunderground v.1.15,2013-03-22 11:24:00,
2013-03-22 06:29:00,17.7,14.8,30.10,North,5,0.0,1.0,88,0.00,,,0.00,Wunderground v.1.15,2013-03-22 11:29:00,
2013-03-22 06:34:00,17.5,14.6,30.10,North,5,0.0,0.0,88,0.00,,,0.00,Wunderground v.1.15,2013-03-22 11:34:00,
2013-03-22 06:38:00,17.4,14.7,30.10,North,5,0.0,2.0,89,0.00,,,0.00,Wunderground v.1.15,2013-03-22 11:38:00,
2013-03-22 06:44:00,17.4,14.7,30.10,North,5,0.0,2.0,89,0.00,,,0.00,Wunderground v.1.15,2013-03-22 11:44:00,
2013-03-22 06:49:00,17.4,14.5,30.10,North,5,0.0,2.0,88,0.00,,,0.00,Wunderground v.1.15,2013-03-22 11:49:00,
2013-03-22 06:54:00,17.3,14.4,30.10,North,5,1.0,2.0,88,0.00,,,0.00,Wunderground v.1.15,2013-03-22 11:54:00,
2013-03-22 06:59:00,17.3,14.4,30.10,North,5,1.0,2.0,88,0.00,,,0.00,Wunderground v.1.15,2013-03-22 11:59:00,
2013-03-22 07:04:00,17.3,14.4,30.09,North,5,0.0,1.0,88,0.00,,,0.00,Wunderground v.1.15,2013-03-22 12:04:00,
2013-03-22 07:09:00,17.3,14.4,30.09,North,5,0.0,1.0,88,0.00,,,0.00,Wunderground v.1.15,2013-03-22 12:09:00,
2013-03-22 07:14:00,17.2,14.3,30.10,North,5,1.0,2.0,88,0.00,,,0.00,Wunderground v.1.15,2013-03-22 12:14:00,
2013-03-22 07:19:00,17.3,14.6,30.10,North,5,1.0,2.0,89,0.00,,,0.00,Wunderground v.1.15,2013-03-22 12:19:00,
2013-03-22 07:24:00,17.5,14.8,30.10,North,5,1.0,2.0,89,0.00,,,0.00,Wunderground v.1.15,2013-03-22 12:24:00,
2013-03-22 07:29:00,17.6,14.9,30.10,North,5,2.0,3.0,89,0.00,,,0.00,Wunderground v.1.15,2013-03-22 12:29:00,
2013-03-22 07:34:00,17.6,14.7,30.10,North,5,1.0,3.0,88,0.00,,,0.00,Wunderground v.1.15,2013-03-22 12:34:00,
2013-03-22 07:39:00,17.7,14.8,30.09,North,5,2.0,3.0,88,0.00,,,0.00,Wunderground v.1.15,2013-03-22 12:39:00,
2013-03-22 07:44:00,17.8,14.8,30.10,North,5,1.0,3.0,88,0.00,,,0.00,Wunderground v.1.15,2013-03-22 12:44:00,
2013-03-22 07:49:00,18.0,15.3,30.10,North,5,2.0,8.0,89,0.00,,,0.00,Wunderground v.1.15,2013-03-22 12:49:00,
2013-03-22 07:54:00,18.3,15.3,30.10,North,5,1.0,5.0,88,0.00,,,0.00,Wunderground v.1.15,2013-03-22 12:54:00,
2013-03-22 07:59:00,18.5,15.5,30.10,North,5,0.0,5.0,88,0.00,,,0.00,Wunderground v.1.15,2013-03-22 12:59:00,
2013-03-22 08:04:00,18.6,15.6,30.10,North,5,0.0,1.0,88,0.00,,,0.00,Wunderground v.1.15,2013-03-22 13:04:00,
2013-03-22 08:09:00,18.8,15.8,30.10,North,5,0.0,1.0,88,0.00,,,0.00,Wunderground v.1.15,2013-03-22 13:09:00,
2013-03-22 08:14:00,18.9,15.7,30.10,North,5,1.0,2.0,87,0.00,,,0.00,Wunderground v.1.15,2013-03-22 13:14:00,
2013-03-22 08:19:00,19.0,15.8,30.10,North,5,2.0,2.0,87,0.00,,,0.00,Wunderground v.1.15,2013-03-22 13:19:00,
2013-03-22 08:24:00,19.3,16.1,30.09,North,5,1.0,3.0,87,0.00,,,0.00,Wunderground v.1.15,2013-03-22 13:24:00,
2013-03-22 08:29:00,19.6,16.4,30.09,North,5,1.0,5.0,87,0.00,,,0.00,Wunderground v.1.15,2013-03-22 13:29:00,
2013-03-22 08:34:00,20.0,16.5,30.10,North,5,0.0,2.0,86,0.00,,,0.00,Wunderground v.1.15,2013-03-22 13:34:00,
2013-03-22 08:39:00,20.3,16.8,30.09,North,5,1.0,5.0,86,0.00,,,0.00,Wunderground v.1.15,2013-03-22 13:39:00,
2013-03-22 08:44:00,20.6,16.8,30.09,North,5,0.0,4.0,85,0.00,,,0.00,Wunderground v.1.15,2013-03-22 13:44:00,
2013-03-22 08:49:00,21.0,17.2,30.09,North,5,0.0,4.0,85,0.00,,,0.00,Wunderground v.1.15,2013-03-22 13:49:00,
2013-03-22 08:54:00,21.5,17.4,30.09,North,5,0.0,0.0,84,0.00,,,0.00,Wunderground v.1.15,2013-03-22 13:54:00,
2013-03-22 08:59:00,21.8,17.4,30.09,North,5,3.0,5.0,83,0.00,,,0.00,Wunderground v.1.15,2013-03-22 13:59:00,
2013-03-22 09:04:00,22.2,17.8,30.09,North,5,1.0,2.0,83,0.00,,,0.00,Wunderground v.1.15,2013-03-22 14:04:00,
2013-03-22 09:09:00,22.7,18.0,30.09,North,5,2.0,2.0,82,0.00,,,0.00,Wunderground v.1.15,2013-03-22 14:09:00,
2013-03-22 09:14:00,23.3,18.3,30.09,North,5,0.0,1.0,81,0.00,,,0.00,Wunderground v.1.15,2013-03-22 14:14:00,
2013-03-22 09:19:00,23.8,18.2,30.09,North,5,1.0,3.0,79,0.00,,,0.00,Wunderground v.1.15,2013-03-22 14:19:00,
2013-03-22 09:24:00,24.2,18.0,30.09,North,5,2.0,3.0,77,0.00,,,0.00,Wunderground v.1.15,2013-03-22 14:24:00,
2013-03-22 09:29:00,24.7,18.2,30.09,North,5,2.0,3.0,76,0.00,,,0.00,Wunderground v.1.15,2013-03-22 14:29:00,
2013-03-22 09:34:00,25.0,18.2,30.09,North,5,2.0,3.0,75,0.00,,,0.00,Wunderground v.1.15,2013-03-22 14:34:00,
2013-03-22 09:39:00,25.1,18.0,30.09,North,5,3.0,7.0,74,0.00,,,0.00,Wunderground v.1.15,2013-03-22 14:39:00,
2013-03-22 09:44:00,25.5,18.4,30.09,North,5,1.0,2.0,74,0.00,,,0.00,Wunderground v.1.15,2013-03-22 14:44:00,
2013-03-22 09:49:00,26.1,18.6,30.09,North,5,5.0,6.0,73,0.00,,,0.00,Wunderground v.1.15,2013-03-22 14:49:00,
2013-03-22 09:54:00,26.2,17.7,30.09,North,5,5.0,5.0,70,0.00,,,0.00,Wunderground v.1.15,2013-03-22 14:54:00,
2013-03-22 09:59:00,26.2,17.1,30.09,North,5,2.0,6.0,68,0.00,,,0.00,Wunderground v.1.15,2013-03-22 14:59:00,
2013-03-22 10:04:00,26.5,17.7,30.09,North,5,2.0,7.0,69,0.00,,,0.00,Wunderground v.1.15,2013-03-22 15:04:00,
2013-03-22 10:09:00,26.7,17.2,30.09,North,5,3.0,4.0,67,0.00,,,0.00,Wunderground v.1.15,2013-03-22 15:09:00,
2013-03-22 10:14:00,26.5,16.7,30.09,North,5,2.0,3.0,66,0.00,,,0.00,Wunderground v.1.15,2013-03-22 15:14:00,
2013-03-22 10:19:00,26.5,17.0,30.09,North,5,0.0,3.0,67,0.00,,,0.00,Wunderground v.1.15,2013-03-22 15:19:00,
2013-03-22 10:24:00,26.6,16.4,30.09,North,5,2.0,5.0,65,0.00,,,0.00,Wunderground v.1.15,2013-03-22 15:24:00,
2013-03-22 10:29:00,26.4,16.6,30.09,North,5,1.0,5.0,66,0.00,,,0.00,Wunderground v.1.15,2013-03-22 15:29:00,
2013-03-22 10:34:00,26.5,17.0,30.09,North,5,2.0,4.0,67,0.00,,,0.00,Wunderground v.1.15,2013-03-22 15:34:00,
2013-03-22 10:39:00,26.9,17.7,30.09,North,5,2.0,4.0,68,0.00,,,0.00,Wunderground v.1.15,2013-03-22 15:39:00,
2013-03-22 10:45:00,27.2,17.7,30.09,North,5,2.0,3.0,67,0.00,,,0.00,Wunderground v.1.15,2013-03-22 15:45:00,
2013-03-22 10:50:00,27.7,18.2,30.09,North,5,0.0,3.0,67,0.00,,,0.00,Wunderground v.1.15,2013-03-22 15:50:00,
2013-03-22 10:55:00,28.7,18.4,30.09,North,5,1.0,2.0,65,0.00,,,0.00,Wunderground v.1.15,2013-03-22 15:55:00,
2013-03-22 11:00:00,29.2,18.2,30.09,North,5,3.0,3.0,63,0.00,,,0.00,Wunderground v.1.15,2013-03-22 16:00:00,
2013-03-22 11:05:00,29.6,18.5,30.09,North,5,2.0,3.0,63,0.00,,,0.00,Wunderground v.1.15,2013-03-22 16:05:00,
2013-03-22 11:13:00,29.3,17.9,30.09,North,5,0.0,1.0,62,0.00,,,0.00,Wunderground v.1.15,2013-03-22 16:13:00,
2013-03-22 11:18:00,29.6,18.2,30.08,North,5,1.0,3.0,62,0.00,,,0.00,Wunderground v.1.15,2013-03-22 16:18:00,
2013-03-22 11:23:00,29.8,18.7,30.08,North,5,2.0,2.0,63,0.00,,,0.00,Wunderground v.1.15,2013-03-22 16:23:00,
2013-03-22 11:28:00,29.7,18.6,30.08,North,5,2.0,4.0,63,0.00,,,0.00,Wunderground v.1.15,2013-03-22 16:28:00,
2013-03-22 11:33:00,29.3,18.3,30.08,North,5,1.0,2.0,63,0.00,,,0.00,Wunderground v.1.15,2013-03-22 16:33:00,
2013-03-22 11:38:00,29.4,19.4,30.08,North,5,2.0,3.0,66,0.00,,,0.00,Wunderground v.1.15,2013-03-22 16:38:00,
2013-03-22 11:43:00,30.0,19.3,30.08,North,5,0.0,1.0,64,0.00,,,0.00,Wunderground v.1.15,2013-03-22 16:43:00,
2013-03-22 11:48:00,30.6,19.5,30.08,North,5,1.0,2.0,63,0.00,,,0.00,Wunderground v.1.15,2013-03-22 16:48:00,
2013-03-22 11:53:00,30.6,19.9,30.08,North,5,1.0,1.0,64,0.00,,,0.00,Wunderground v.1.15,2013-03-22 16:53:00,
2013-03-22 11:58:00,30.8,20.0,30.08,North,5,1.0,4.0,64,0.00,,,0.00,Wunderground v.1.15,2013-03-22 16:58:00,
2013-03-22 12:03:00,30.8,20.4,30.07,North,5,3.0,6.0,65,0.00,,,0.00,Wunderground v.1.15,2013-03-22 17:03:00,
2013-03-22 12:08:00,30.7,19.6,30.07,North,5,1.0,6.0,63,0.00,,,0.00,Wunderground v.1.15,2013-03-22 17:08:00,
2013-03-22 12:13:00,30.5,19.8,30.07,North,5,0.0,2.0,64,0.00,,,0.00,Wunderground v.1.15,2013-03-22 17:13:00,
2013-03-22 12:18:00,30.5,19.8,30.07,North,5,1.0,4.0,64,0.00,,,0.00,Wunderground v.1.15,2013-03-22 17:18:00,
2013-03-22 12:23:00,30.6,19.9,30.07,North,5,1.0,3.0,64,0.00,,,0.00,Wunderground v.1.15,2013-03-22 17:23:00,
2013-03-22 12:28:00,30.6,19.9,30.07,North,5,1.0,3.0,64,0.00,,,0.00,Wunderground v.1.15,2013-03-22 17:28:00,
2013-03-22 12:33:00,30.9,20.1,30.07,North,5,0.0,2.0,64,0.00,,,0.00,Wunderground v.1.15,2013-03-22 17:33:00,
2013-03-22 12:38:00,31.3,19.8,30.07,North,5,1.0,2.0,62,0.00,,,0.00,Wunderground v.1.15,2013-03-22 17:38:00,
2013-03-22 12:43:00,32.0,21.2,30.07,North,5,0.0,4.0,64,0.00,,,0.00,Wunderground v.1.15,2013-03-22 17:43:00,
2013-03-22 12:49:00,31.9,21.1,30.07,North,355,4.0,5.0,64,0.00,,,0.00,Wunderground v.1.15,2013-03-22 17:49:00,
2013-03-22 12:54:00,31.5,21.1,30.07,NNW,346,2.0,4.0,65,0.00,,,0.00,Wunderground v.1.15,2013-03-22 17:54:00,
2013-03-22 12:59:00,31.3,20.2,30.07,NNW,343,2.0,4.0,63,0.00,,,0.00,Wunderground v.1.15,2013-03-22 17:59:00,
2013-03-22 13:04:00,31.5,20.7,30.07,NNW,343,0.0,2.0,64,0.00,,,0.00,Wunderground v.1.15,2013-03-22 18:04:00,
2013-03-22 13:09:00,32.1,20.5,30.06,NNW,343,1.0,2.0,62,0.00,,,0.00,Wunderground v.1.15,2013-03-22 18:09:00,
2013-03-22 13:14:00,32.6,19.8,30.06,NNW,343,3.0,4.0,59,0.00,,,0.00,Wunderground v.1.15,2013-03-22 18:14:00,
2013-03-22 13:19:00,32.7,21.1,30.07,NNW,343,2.0,4.0,62,0.00,,,0.00,Wunderground v.1.15,2013-03-22 18:19:00,
2013-03-22 13:24:00,32.9,20.1,30.06,NNW,343,3.0,5.0,59,0.00,,,0.00,Wunderground v.1.15,2013-03-22 18:24:00,
2013-03-22 13:29:00,32.5,20.1,30.06,NNW,343,5.0,6.0,60,0.00,,,0.00,Wunderground v.1.15,2013-03-22 18:29:00,
2013-03-22 13:34:00,32.4,21.2,30.06,NNW,333,3.0,4.0,63,0.00,,,0.00,Wunderground v.1.15,2013-03-22 18:34:00,
2013-03-22 13:39:00,32.2,21.0,30.06,NNW,333,4.0,6.0,63,0.00,,,0.00,Wunderground v.1.15,2013-03-22 18:39:00,
2013-03-22 13:44:00,32.3,21.1,30.06,NNW,333,3.0,4.0,63,0.00,,,0.00,Wunderground v.1.15,2013-03-22 18:44:00,
2013-03-22 13:49:00,32.3,20.7,30.06,NNW,332,0.0,4.0,62,0.00,,,0.00,Wunderground v.1.15,2013-03-22 18:49:00,
2013-03-22 13:54:00,32.8,20.8,30.06,NNW,332,0.0,3.0,61,0.00,,,0.00,Wunderground v.1.15,2013-03-22 18:54:00,
2013-03-22 13:59:00,33.3,21.3,30.06,NNW,332,0.0,3.0,61,0.00,,,0.00,Wunderground v.1.15,2013-03-22 18:59:00,
2013-03-22 14:04:00,33.9,21.1,30.05,NNW,332,0.0,3.0,59,0.00,,,0.00,Wunderground v.1.15,2013-03-22 19:04:00,
2013-03-22 14:09:00,34.0,21.2,30.05,NNW,332,3.0,5.0,59,0.00,,,0.00,Wunderground v.1.15,2013-03-22 19:09:00,
2013-03-22 14:14:00,33.7,21.7,30.05,NNW,332,2.0,4.0,61,0.00,,,0.00,Wunderground v.1.15,2013-03-22 19:14:00,
2013-03-22 14:19:00,33.6,20.8,30.05,NNW,345,0.0,6.0,59,0.00,,,0.00,Wunderground v.1.15,2013-03-22 19:19:00,
2013-03-22 14:24:00,33.8,21.0,30.05,NNW,345,0.0,2.0,59,0.00,,,0.00,Wunderground v.1.15,2013-03-22 19:24:00,
2013-03-22 14:29:00,33.9,20.7,30.05,North,350,4.0,8.0,58,0.00,,,0.00,Wunderground v.1.15,2013-03-22 19:29:00,
2013-03-22 14:34:00,33.6,21.2,30.05,North,350,2.0,5.0,60,0.00,,,0.00,Wunderground v.1.15,2013-03-22 19:34:00,
2013-03-22 14:39:00,33.7,21.3,30.05,North,350,4.0,5.0,60,0.00,,,0.00,Wunderground v.1.15,2013-03-22 19:39:00,
2013-03-22 14:44:00,34.1,23.2,30.05,NNW,345,2.0,5.0,64,0.00,,,0.00,Wunderground v.1.15,2013-03-22 19:44:00,
2013-03-22 14:49:00,34.4,23.1,30.05,NNW,341,1.0,5.0,63,0.00,,,0.00,Wunderground v.1.15,2013-03-22 19:49:00,
2013-03-22 14:54:00,34.8,22.7,30.04,NNW,341,1.0,2.0,61,0.00,,,0.00,Wunderground v.1.15,2013-03-22 19:54:00,
2013-03-22 14:59:00,35.5,23.8,30.05,NNW,341,4.0,4.0,62,0.00,,,0.00,Wunderground v.1.15,2013-03-22 19:59:00,
2013-03-22 15:04:00,35.6,23.1,30.05,NNW,341,2.0,4.0,60,0.00,,,0.00,Wunderground v.1.15,2013-03-22 20:04:00,
2013-03-22 15:09:00,35.5,24.5,30.04,NW,321,6.0,6.0,64,0.00,,,0.00,Wunderground v.1.15,2013-03-22 20:09:00,
2013-03-22 15:14:00,35.1,23.4,30.04,NW,312,0.0,4.0,62,0.00,,,0.00,Wunderground v.1.15,2013-03-22 20:14:00,
2013-03-22 15:19:00,35.5,24.1,30.04,NW,312,4.0,5.0,63,0.00,,,0.00,Wunderground v.1.15,2013-03-22 20:19:00,
2013-03-22 15:24:00,35.7,23.9,30.04,NNW,328,10.0,10.0,62,0.00,,,0.00,Wunderground v.1.15,2013-03-22 20:24:00,
2013-03-22 15:29:00,35.4,23.3,30.04,NNW,342,4.0,10.0,61,0.00,,,0.00,Wunderground v.1.15,2013-03-22 20:29:00,
2013-03-22 15:35:00,35.5,24.5,30.04,NNW,342,2.0,3.0,64,0.00,,,0.00,Wunderground v.1.15,2013-03-22 20:35:00,
2013-03-22 15:40:00,35.8,24.0,30.04,WNW,297,2.0,7.0,62,0.00,,,0.00,Wunderground v.1.15,2013-03-22 20:40:00,
2013-03-22 15:45:00,35.9,24.9,30.04,WNW,297,2.0,3.0,64,0.00,,,0.00,Wunderground v.1.15,2013-03-22 20:45:00,
2013-03-22 15:50:00,36.2,23.2,30.04,WNW,298,2.0,4.0,59,0.00,,,0.00,Wunderground v.1.15,2013-03-22 20:50:00,
2013-03-22 15:55:00,36.3,23.7,30.04,WNW,298,0.0,2.0,60,0.00,,,0.00,Wunderground v.1.15,2013-03-22 20:55:00,
2013-03-22 16:00:00,36.4,23.8,30.04,WNW,300,3.0,4.0,60,0.00,,,0.00,Wunderground v.1.15,2013-03-22 21:00:00,
2013-03-22 16:05:00,36.3,24.1,30.04,WNW,301,4.0,6.0,61,0.00,,,0.00,Wunderground v.1.15,2013-03-22 21:05:00,
2013-03-22 16:10:00,36.4,23.8,30.04,WNW,302,6.0,6.0,60,0.00,,,0.00,Wunderground v.1.15,2013-03-22 21:10:00,
2013-03-22 16:15:00,36.0,22.6,30.04,NW,317,4.0,6.0,58,0.00,,,0.00,Wunderground v.1.15,2013-03-22 21:15:00,
2013-03-22 16:20:00,36.0,23.8,30.04,NW,317,4.0,6.0,61,0.00,,,0.00,Wunderground v.1.15,2013-03-22 21:20:00,
2013-03-22 16:25:00,36.1,23.5,30.04,NW,317,2.0,4.0,60,0.00,,,0.00,Wunderground v.1.15,2013-03-22 21:25:00,
2013-03-22 16:30:00,36.0,23.4,30.04,NW,317,2.0,6.0,60,0.00,,,0.00,Wunderground v.1.15,2013-03-22 21:30:00,
2013-03-22 16:35:00,36.0,23.8,30.04,NW,317,0.0,3.0,61,0.00,,,0.00,Wunderground v.1.15,2013-03-22 21:35:00,
2013-03-22 16:40:00,36.1,23.9,30.04,NW,317,4.0,6.0,61,0.00,,,0.00,Wunderground v.1.15,2013-03-22 21:40:00,
2013-03-22 16:45:00,36.1,24.7,30.03,NW,317,3.0,4.0,63,0.00,,,0.00,Wunderground v.1.15,2013-03-22 21:45:00,
2013-03-22 16:50:00,36.0,24.2,30.03,NW,323,6.0,8.0,62,0.00,,,0.00,Wunderground v.1.15,2013-03-22 21:50:00,
2013-03-22 16:55:00,35.7,24.3,30.03,NNW,330,4.0,7.0,63,0.00,,,0.00,Wunderground v.1.15,2013-03-22 21:55:00,
2013-03-22 17:00:00,35.5,25.6,30.03,NNW,343,7.0,9.0,67,0.00,,,0.00,Wunderground v.1.15,2013-03-22 22:00:00,
2013-03-22 17:05:00,35.3,24.7,30.03,North,360,6.0,8.0,65,0.00,,,0.00,Wunderground v.1.15,2013-03-22 22:05:00,
2013-03-22 17:10:00,35.3,25.1,30.03,North,360,6.0,6.0,66,0.00,,,0.00,Wunderground v.1.15,2013-03-22 22:10:00,
2013-03-22 17:15:00,35.2,25.0,30.03,North,360,4.0,6.0,66,0.00,,,0.00,Wunderground v.1.15,2013-03-22 22:15:00,
2013-03-22 17:20:00,35.1,24.5,30.03,North,360,6.0,8.0,65,0.00,,,0.00,Wunderground v.1.15,2013-03-22 22:20:00,
2013-03-22 17:25:00,35.0,25.5,30.03,North,5,7.0,8.0,68,0.00,,,0.00,Wunderground v.1.15,2013-03-22 22:25:00,
2013-03-22 17:30:00,34.9,25.4,30.03,North,5,1.0,8.0,68,0.00,,,0.00,Wunderground v.1.15,2013-03-22 22:30:00,
2013-03-22 17:35:00,34.8,25.0,30.03,North,5,4.0,9.0,67,0.00,,,0.00,Wunderground v.1.15,2013-03-22 22:35:00,
2013-03-22 17:40:00,34.7,24.9,30.03,North,5,7.0,9.0,67,0.00,,,0.00,Wunderground v.1.15,2013-03-22 22:40:00,
2013-03-22 17:45:00,34.6,24.8,30.03,North,360,5.0,8.0,67,0.00,,,0.00,Wunderground v.1.15,2013-03-22 22:45:00,
2013-03-22 17:50:00,34.5,24.7,30.03,North,5,8.0,9.0,67,0.00,,,0.00,Wunderground v.1.15,2013-03-22 22:50:00,
2013-03-22 17:55:00,34.4,25.3,30.03,North,5,6.0,8.0,69,0.00,,,0.00,Wunderground v.1.15,2013-03-22 22:55:00,
2013-03-22 18:00:00,34.3,24.8,30.03,North,360,7.0,8.0,68,0.00,,,0.00,Wunderground v.1.15,2013-03-22 23:00:00,
2013-03-22 18:05:00,34.3,24.5,30.03,North,5,7.0,8.0,67,0.00,,,0.00,Wunderground v.1.15,2013-03-22 23:05:00,
2013-03-22 18:11:00,34.2,25.4,30.03,North,5,7.0,18.0,70,0.00,,,0.00,Wunderground v.1.15,2013-03-22 23:11:00,
2013-03-22 18:15:00,34.1,25.0,30.04,North,5,8.0,9.0,69,0.00,,,0.00,Wunderground v.1.15,2013-03-22 23:15:00,
2013-03-22 18:21:00,34.0,25.6,30.04,North,5,6.0,9.0,71,0.00,,,0.00,Wunderground v.1.15,2013-03-22 23:21:00,
2013-03-22 18:26:00,33.9,25.5,30.04,North,5,8.0,18.0,71,0.00,,,0.00,Wunderground v.1.15,2013-03-22 23:26:00,
2013-03-22 18:32:00,33.8,25.7,30.04,North,5,8.0,8.0,72,0.00,,,0.00,Wunderground v.1.15,2013-03-22 23:32:00,
2013-03-22 18:37:00,33.7,25.3,30.04,North,5,3.0,8.0,71,0.00,,,0.00,Wunderground v.1.15,2013-03-22 23:37:00,
2013-03-22 18:42:00,33.6,25.5,30.04,North,5,2.0,5.0,72,0.00,,,0.00,Wunderground v.1.15,2013-03-22 23:42:00,
2013-03-22 18:47:00,33.5,25.8,30.04,North,5,4.0,7.0,73,0.00,,,0.00,Wunderground v.1.15,2013-03-22 23:47:00,
2013-03-22 18:52:00,33.5,26.1,30.04,North,5,5.0,5.0,74,0.00,,,0.00,Wunderground v.1.15,2013-03-22 23:52:00,
2013-03-22 18:58:00,33.3,26.2,30.05,North,5,4.0,12.0,75,0.00,,,0.00,Wunderground v.1.15,2013-03-22 23:58:00,
2013-03-22 19:03:00,33.3,26.2,30.05,North,5,4.0,5.0,75,0.00,,,0.00,Wunderground v.1.15,2013-03-23 00:03:00,
2013-03-22 19:08:00,33.2,26.5,30.05,North,5,2.0,12.0,76,0.00,,,0.00,Wunderground v.1.15,2013-03-23 00:08:00,
2013-03-22 19:13:00,32.9,26.8,30.05,North,5,6.0,7.0,78,0.00,,,0.00,Wunderground v.1.15,2013-03-23 00:13:00,
2013-03-22 19:18:00,32.7,26.9,30.06,North,5,8.0,14.0,79,0.00,,,0.00,Wunderground v.1.15,2013-03-23 00:18:00,
2013-03-22 19:23:00,32.5,26.7,30.06,North,5,7.0,7.0,79,0.00,,,0.00,Wunderground v.1.15,2013-03-23 00:23:00,
2013-03-22 19:28:00,32.3,26.5,30.06,North,5,8.0,8.0,79,0.00,,,0.00,Wunderground v.1.15,2013-03-23 00:28:00,
2013-03-22 19:33:00,32.2,26.4,30.06,North,360,8.0,8.0,79,0.00,,,0.00,Wunderground v.1.15,2013-03-23 00:33:00,
2013-03-22 19:38:00,32.2,26.4,30.06,North,360,8.0,9.0,79,0.00,,,0.00,Wunderground v.1.15,2013-03-23 00:38:00,
2013-03-22 19:43:00,32.2,26.4,30.06,North,360,7.0,9.0,79,0.00,,,0.00,Wunderground v.1.15,2013-03-23 00:43:00,
2013-03-22 19:48:00,32.2,26.4,30.06,North,360,7.0,9.0,79,0.00,,,0.00,Wunderground v.1.15,2013-03-23 00:48:00,
2013-03-22 19:53:00,32.3,26.5,30.06,North,360,9.0,9.0,79,0.00,,,0.00,Wunderground v.1.15,2013-03-23 00:53:00,
2013-03-22 19:58:00,32.2,26.4,30.07,North,360,6.0,9.0,79,0.00,,,0.00,Wunderground v.1.15,2013-03-23 00:58:00,
2013-03-22 20:03:00,32.1,26.6,30.06,North,360,7.0,8.0,80,0.00,,,0.00,Wunderground v.1.15,2013-03-23 01:03:00,
2013-03-22 20:08:00,32.1,26.6,30.07,North,360,5.0,8.0,80,0.00,,,0.00,Wunderground v.1.15,2013-03-23 01:08:00,
2013-03-22 20:13:00,32.1,26.6,30.06,North,360,4.0,7.0,80,0.00,,,0.00,Wunderground v.1.15,2013-03-23 01:13:00,
2013-03-22 20:18:00,32.0,26.8,30.06,North,360,5.0,7.0,81,0.00,,,0.00,Wunderground v.1.15,2013-03-23 01:18:00,
2013-03-22 20:23:00,32.0,26.8,30.06,North,360,5.0,6.0,81,0.00,,,0.00,Wunderground v.1.15,2013-03-23 01:23:00,
2013-03-22 20:28:00,31.9,27.0,30.06,North,5,5.0,6.0,82,0.00,,,0.00,Wunderground v.1.15,2013-03-23 01:28:00,
2013-03-22 20:33:00,31.8,26.9,30.06,North,5,2.0,4.0,82,0.00,,,0.00,Wunderground v.1.15,2013-03-23 01:33:00,
2013-03-22 20:38:00,31.7,26.8,30.06,North,5,3.0,4.0,82,0.00,,,0.00,Wunderground v.1.15,2013-03-23 01:38:00,
2013-03-22 20:43:00,31.7,27.1,30.06,North,5,2.0,4.0,83,0.00,,,0.00,Wunderground v.1.15,2013-03-23 01:43:00,
2013-03-22 20:48:00,31.6,27.0,30.06,North,5,4.0,6.0,83,0.00,,,0.00,Wunderground v.1.15,2013-03-23 01:48:00,
2013-03-22 20:53:00,31.5,26.9,30.06,North,5,6.0,6.0,83,0.00,,,0.00,Wunderground v.1.15,2013-03-23 01:53:00,
2013-03-22 20:58:00,31.4,27.1,30.06,North,5,2.0,12.0,84,0.00,,,0.00,Wunderground v.1.15,2013-03-23 01:58:00,
2013-03-22 21:03:00,31.3,27.0,30.06,North,5,2.0,5.0,84,0.00,,,0.00,Wunderground v.1.15,2013-03-23 02:03:00,
2013-03-22 21:08:00,31.2,26.9,30.06,North,5,4.0,5.0,84,0.00,,,0.00,Wunderground v.1.15,2013-03-23 02:08:00,
2013-03-22 21:14:00,31.2,27.2,30.06,North,5,3.0,5.0,85,0.00,,,0.00,Wunderground v.1.15,2013-03-23 02:14:00,
2013-03-22 21:18:00,31.1,27.1,30.06,North,5,3.0,6.0,85,0.00,,,0.00,Wunderground v.1.15,2013-03-23 02:18:00,
2013-03-22 21:23:00,31.0,27.0,30.06,North,5,0.0,3.0,85,0.00,,,0.00,Wunderground v.1.15,2013-03-23 02:23:00,
2013-03-22 21:29:00,30.9,26.9,30.06,North,5,1.0,4.0,85,0.00,,,0.00,Wunderground v.1.15,2013-03-23 02:29:00,
2013-03-22 21:34:00,30.7,26.7,30.06,North,5,1.0,2.0,85,0.00,,,0.00,Wunderground v.1.15,2013-03-23 02:34:00,
2013-03-22 21:39:00,30.6,26.3,30.06,North,5,1.0,2.0,84,0.00,,,0.00,Wunderground v.1.15,2013-03-23 02:39:00,
2013-03-22 21:44:00,30.5,26.2,30.06,North,5,2.0,2.0,84,0.00,,,0.00,Wunderground v.1.15,2013-03-23 02:44:00,
2013-03-22 21:49:00,30.4,25.9,30.06,North,5,0.0,2.0,83,0.00,,,0.00,Wunderground v.1.15,2013-03-23 02:49:00,
2013-03-22 21:54:00,30.4,25.9,30.06,North,5,0.0,1.0,83,0.00,,,0.00,Wunderground v.1.15,2013-03-23 02:54:00,
2013-03-22 21:59:00,30.2,25.7,30.07,North,5,1.0,2.0,83,0.00,,,0.00,Wunderground v.1.15,2013-03-23 02:59:00,
2013-03-22 22:04:00,30.2,25.7,30.07,North,5,0.0,1.0,83,0.00,,,0.00,Wunderground v.1.15,2013-03-23 03:04:00,
2013-03-22 22:09:00,30.1,25.6,30.07,North,5,0.0,1.0,83,0.00,,,0.00,Wunderground v.1.15,2013-03-23 03:09:00,
2013-03-22 22:14:00,30.1,25.8,30.07,North,5,0.0,3.0,84,0.00,,,0.00,Wunderground v.1.15,2013-03-23 03:14:00,
2013-03-22 22:19:00,30.1,25.8,30.08,North,5,3.0,3.0,84,0.00,,,0.00,Wunderground v.1.15,2013-03-23 03:19:00,
2013-03-22 22:24:00,30.0,25.8,30.08,North,5,0.0,1.0,84,0.00,,,0.00,Wunderground v.1.15,2013-03-23 03:24:00,
2013-03-22 22:29:00,29.9,25.7,30.08,North,5,0.0,1.0,84,0.00,,,0.00,Wunderground v.1.15,2013-03-23 03:29:00,
2013-03-22 22:34:00,29.8,25.6,30.08,North,5,1.0,3.0,84,0.00,,,0.00,Wunderground v.1.15,2013-03-23 03:34:00,
2013-03-22 22:39:00,29.8,25.6,30.08,North,5,3.0,4.0,84,0.00,,,0.00,Wunderground v.1.15,2013-03-23 03:39:00,
2013-03-22 22:44:00,29.8,25.6,30.08,North,5,3.0,5.0,84,0.00,,,0.00,Wunderground v.1.15,2013-03-23 03:44:00,
2013-03-22 22:49:00,29.8,25.6,30.08,North,5,2.0,5.0,84,0.00,,,0.00,Wunderground v.1.15,2013-03-23 03:49:00,
2013-03-22 22:54:00,29.8,25.6,30.08,North,5,4.0,6.0,84,0.00,,,0.00,Wunderground v.1.15,2013-03-23 03:54:00,
2013-03-22 22:59:00,29.8,25.6,30.08,North,5,4.0,7.0,84,0.00,,,0.00,Wunderground v.1.15,2013-03-23 03:59:00,
2013-03-22 23:00:00,29.8,25.6,30.08,North,5,3.0,4.0,84,0.00,,,0.00,Wunderground v.1.15,2013-03-23 04:00:00,
2013-03-22 23:02:00,29.9,25.7,30.08,North,5,4.0,4.0,84,0.00,,,0.00,Wunderground v.1.15,2013-03-23 04:02:00,
2013-03-22 23:08:00,29.9,25.4,30.08,North,5,4.0,6.0,83,0.00,,,0.00,Wunderground v.1.15,2013-03-23 04:08:00,
2013-03-22 23:13:00,30.0,25.5,30.08,North,5,5.0,8.0,83,0.00,,,0.00,Wunderground v.1.15,2013-03-23 04:13:00,
2013-03-22 23:18:00,30.1,25.6,30.08,North,5,6.0,8.0,83,0.00,,,0.00,Wunderground v.1.15,2013-03-23 04:18:00,
2013-03-22 23:23:00,30.2,25.7,30.09,North,5,6.0,7.0,83,0.00,,,0.00,Wunderground v.1.15,2013-03-23 04:23:00,
2013-03-22 23:28:00,30.2,25.7,30.09,North,5,7.0,8.0,83,0.00,,,0.00,Wunderground v.1.15,2013-03-23 04:28:00,
2013-03-22 23:33:00,30.2,25.7,30.09,North,5,6.0,6.0,83,0.00,,,0.00,Wunderground v.1.15,2013-03-23 04:33:00,
2013-03-22 23:38:00,30.2,25.4,30.09,North,5,8.0,11.0,82,0.00,,,0.00,Wunderground v.1.15,2013-03-23 04:38:00,
2013-03-22 23:43:00,30.3,25.8,30.09,North,5,6.0,6.0,83,0.00,,,0.00,Wunderground v.1.15,2013-03-23 04:43:00,
2013-03-22 23:48:00,30.3,25.8,30.09,North,5,4.0,6.0,83,0.00,,,0.00,Wunderground v.1.15,2013-03-23 04:48:00,
2013-03-22 23:53:00,30.2,25.4,30.09,North,5,3.0,6.0,82,0.00,,,0.00,Wunderground v.1.15,2013-03-23 04:53:00,